Flag for Japan Weather past 2 weeks in Nagoya, Japan

Now
43 °F

Sprinkles. Partly sunny.


Feels Like: 37 °F
Forecast: 33 / 43 °F
Wind: 9 mph from North

Location: Nagoya Airport

Current Time: Dec 20, 2014 at 1:11:13 PM

Latest Report: Dec 20, 2014 at 12:30 PM


Visibility: 5 mi

Pressure: 29.92 "Hg

Humidity: 81%

Dew point: 37 °F

Location of NagoyaLocation

Historic Weather in Nagoya — Graph

°F

Nagoya temperature yesterday

Maximum temperature yesterday: 45 °F (at 1:30 PM)
Minimum temperature yesterday: 36 °F (at 5:00 AM)
Average temperature yesterday: 40 °F

Past Weeks' High & Low Weather Summary

 TemperatureHumidityPressure
High55 °F (Dec 11, 4:00 PM)100% (Dec 11, 11:00 AM)30.48 "Hg (Dec 11, 11:00 AM)
Low36 °F (Dec 17, 9:00 PM)40% (Dec 5, 1:00 PM)29.53 "Hg (Dec 16, 4:00 PM)
Average44 °F66%30.08 "Hg
* Reported Dec 5 11:00 AM — Dec 20 11:30 AM, Nagoya, Weather by CustomWeather, © 2014

Note: Actual official high and low records may vary slightly from our data, if they occured in-between our weather recording intervals... More about our weather records

Advertising

Nagoya weather history for previous 24 hours

 ConditionsComfort  
Time TempWeatherWind HumidityBarometerVisibility
11:30 AM
Dec 20
43 °FSprinkles. Partly sunny.5 mph76%30.01 "HgN/A
11:00 AM43 °FPartly sunny.7 mph81%30.07 "HgN/A
10:00 AM41 °FPartly sunny.6 mph81%30.12 "HgN/A
9:30 AM39 °FLight rain. Partly sunny.6 mph81%30.15 "HgN/A
9:00 AM41 °FLight rain. Broken clouds.9 mph76%30.18 "HgN/A
8:30 AM39 °FPartly sunny.9 mph81%30.18 "HgN/A
8:00 AM41 °FBroken clouds.12 mph76%30.21 "HgN/A
7:30 AM41 °FBroken clouds.12 mph76%30.21 "HgN/A
7:00 AM39 °FPartly sunny.7 mph81%30.21 "HgN/A
6:30 AM39 °FPartly cloudy.8 mph81%30.24 "HgN/A
6:00 AM39 °FPartly cloudy.7 mph81%30.24 "HgN/A
5:30 AM39 °FPassing clouds.7 mph81%30.27 "HgN/A
5:00 AM37 °FPassing clouds.8 mph87%30.27 "HgN/A
4:30 AM39 °FPassing clouds.10 mph81%30.27 "HgN/A
4:00 AM39 °FPassing clouds.9 mph81%30.30 "HgN/A
3:30 AM37 °FPassing clouds.7 mph81%30.30 "HgN/A
3:00 AM39 °FPassing clouds.7 mph75%30.30 "HgN/A
2:30 AM39 °FPassing clouds.5 mph87%30.33 "HgN/A
2:00 AM39 °FPassing clouds.5 mph87%30.36 "HgN/A
1:30 AM39 °FPassing clouds.6 mph75%30.36 "HgN/A
1:00 AM39 °FPassing clouds.5 mph75%30.39 "HgN/A
12:30 AM39 °FPassing clouds.5 mph75%30.39 "HgN/A
12:00 AM39 °FPassing clouds.7 mph75%30.39 "HgN/A
11:30 PM
Dec 19
39 °FPassing clouds.5 mph75%30.39 "HgN/A
11:00 PM39 °FPassing clouds.9 mph81%30.39 "HgN/A
10:30 PM39 °FPassing clouds.8 mph81%30.39 "HgN/A
10:00 PM39 °FPartly cloudy.9 mph81%30.39 "HgN/A
9:30 PM41 °FPassing clouds.13 mph76%30.42 "HgN/A
9:00 PM41 °FPartly cloudy.6 mph76%30.42 "HgN/A
8:30 PM39 °FPassing clouds.5 mph70%30.42 "HgN/A
8:00 PM41 °FPartly cloudy.5 mph66%30.39 "HgN/A
7:30 PM41 °FPartly cloudy.5 mph61%30.42 "HgN/A
7:00 PM41 °FPassing clouds.8 mph61%30.39 "HgN/A
6:30 PM41 °FPartly cloudy.8 mph61%30.39 "HgN/A
6:00 PM41 °FPassing clouds.9 mph57%30.39 "HgN/A
5:30 PM41 °FPassing clouds.9 mph57%30.42 "HgN/A
5:00 PM43 °FPassing clouds.8 mph53%30.42 "HgN/A
4:30 PM41 °FPassing clouds.7 mph53%30.42 "HgN/A
4:00 PM43 °FPassing clouds.6 mph49%30.42 "HgN/A
3:30 PM45 °FScattered clouds.5 mph49%30.42 "HgN/A
3:00 PM45 °FScattered clouds.6 mph46%30.42 "HgN/A
2:30 PM45 °FPassing clouds.6 mph49%30.39 "HgN/A
2:00 PM45 °FPassing clouds.6 mph49%30.39 "HgN/A
1:30 PM45 °FPassing clouds.7 mph49%30.42 "HgN/A
Weather by CustomWeather, © 2014

See weather overviewHow to use our weather pages